Home > Weather > Carson City > Past weeks

Flag for U.S.A. Weather for the Past 2 Weeks in Carson City, Nevada, U.S.A.

Now
42 °F

Passing clouds.


Feels Like: 42 °F
Forecast: 26 / 57 °F
Wind: No wind

Location: Reno Tahoe International Airport

Current Time: Feb 9, 2016 at 11:22:52 PM

Latest Report: Feb 9, 2016 at 10:55 PM


Visibility: 10 mi

Pressure: 30.35 "Hg (25.49 "Hg at 1425m altitude)

Humidity: 68%

Dew point: 32 °F

Location of Carson CityLocation

Historic Weather in Carson City — Graph

°F

Carson City Temperature Yesterday

Maximum temperature yesterday: 56 °F (at 1:55 PM)
Minimum temperature yesterday: 28 °F (at 5:55 AM)
Average temperature yesterday: 41 °F

High & Low Weather Summary for the Past Weeks

 TemperatureHumidityPressure
High59 °F (Jan 29, 10:55 AM)92% (Jan 30, 3:55 AM)30.62 "Hg (Jan 30, 3:55 AM)
Low15 °F (Feb 2, 4:55 AM)33% (Jan 28, 2:55 PM)29.65 "Hg (Jan 31, 2:55 PM)
Average36 °F68%30.29 "Hg
* Reported Jan 25 9:55 PM — Feb 9 9:55 PM, Carson City, Weather by CustomWeather, © 2016

Note: Actual official high and low records may vary slightly from our data, if they occured in-between our weather recording intervals... More about our weather records

Advertising

Carson City Weather History for the Previous 24 Hours

 ConditionsComfort  
Time TempWeatherWind HumidityBarometerVisibility
9:55 PM
Tue, Feb 9
43 °FPassing clouds.No wind68%30.37 "Hg10 mi
8:55 PM46 °FPassing clouds.No wind63%30.36 "Hg10 mi
7:55 PM46 °FPassing clouds.No wind66%30.36 "Hg10 mi
6:55 PM49 °FPassing clouds.5 mph59%30.35 "Hg10 mi
5:55 PM53 °FPassing clouds.6 mph52%30.32 "Hg10 mi
4:55 PM57 °FPartly sunny.6 mph44%30.30 "Hg10 mi
3:55 PM59 °FPartly sunny.3 mph41%30.31 "Hg10 mi
2:55 PM59 °FPartly sunny.No wind38%30.31 "Hg10 mi
1:55 PM59 °FPartly sunny.No wind36%30.32 "Hg10 mi
12:55 PM55 °FPartly sunny.3 mph42%30.37 "Hg10 mi
11:55 AM51 °FPassing clouds.No wind48%30.44 "Hg10 mi
10:55 AM47 °FPassing clouds.No wind54%30.46 "Hg10 mi
9:55 AM41 °FPassing clouds.No wind65%30.49 "Hg10 mi
8:55 AM36 °FSunny.No wind73%30.50 "Hg10 mi
7:55 AM30 °FSunny.No wind85%30.51 "Hg10 mi
6:55 AM29 °FClear.No wind82%30.50 "Hg10 mi
5:55 AM29 °FClear.No wind82%30.49 "Hg10 mi
4:55 AM30 °FClear.No wind82%30.48 "Hg10 mi
3:55 AM31 °FClear.No wind82%30.47 "Hg10 mi
2:55 AM31 °FClear.No wind85%30.47 "Hg10 mi
1:55 AM33 °FClear.3 mph78%30.47 "Hg10 mi
12:55 AM35 °FClear.6 mph72%30.48 "Hg10 mi
11:55 PM
Mon, Feb 8
35 °FClear.No wind75%30.50 "Hg10 mi
Weather by CustomWeather, © 2016

See weather overviewHow to use our weather pages